This demonstration page uses our WeatherBlox Daily Observations layout. Learn more.

Left ArrowRight Arrow

Hourly Observations for June 20, 2020

Temp ( °F °C ) Dew Point ( °F °C ) Humidity (%) Winds ( mph kmh ) Pressure ( in mb ) Visibility ( mi km ) Precip ( " mm )
12:53 am 00:53 Clear 52 11.1 49 9.4 89 89 S 5 7 29.89 1012 10 16 N/A
1:53 am 01:53 Partly Cloudy 54 12.2 49 9.4 83 83 SW 12 19 29.88 1012 10 16 N/A
2:53 am 02:53 Clear 52 11.1 49 9.4 89 89 W 8 13 29.89 1012 10 16 N/A
3:53 am 03:53 Clear 51 10.6 48 8.9 89 89 WSW 10 17 29.88 1012 10 16 N/A
4:53 am 04:53 Clear 49 9.4 47 8.3 93 93 W 8 13 29.88 1012 10 16 N/A
5:53 am 05:53 Sunny 48 8.9 46 7.8 93 93 SSW 9 15 29.88 1012 10 16 N/A
6:53 am 06:53 Mostly Sunny 51 10.6 48 8.9 89 89 SW 9 15 29.87 1012 10 16 N/A
7:53 am 07:53 Sunny 59 15 52 11.1 78 78 SW 13 20 29.87 1011 10 16 N/A
8:53 am 08:53 Mostly Cloudy 62 16.7 53 11.7 73 73 SW 14 22 29.86 1011 10 16 N/A
9:53 am 09:53 Mostly Sunny 64 17.8 52 11.1 65 65 WSW 9 15 29.86 1011 10 16 N/A
10:53 am 10:53 Sunny 69 20.6 52 11.1 55 55 WSW 7 11 29.85 1011 10 16 N/A
11:53 am 11:53 Sunny 72 22.2 50 10 46 46 SW 3 6 29.83 1010 10 16 N/A
12:53 pm 12:53 Sunny 75 23.9 48 8.9 39 39 WSW 12 19 29.82 1010 10 16 N/A
1:53 pm 13:53 Mostly Sunny 78 25.6 49 9.4 36 36 W 10 17 29.80 1009 10 16 N/A
2:53 pm 14:53 Mostly Sunny 80 26.7 50 10 35 35 W 8 13 29.78 1009 10 16 N/A
3:53 pm 15:53 Partly Cloudy 79 26.1 48 8.9 34 34 NW 8 13 29.77 1008 10 16 N/A
4:53 pm 16:53 Mostly Cloudy 77 25 49 9.4 37 37 W 29 46 29.77 1008 10 16 N/A
5:08 pm 17:08 Cloudy 70 21.1 54 12.2 57 57 WSW 17 28 29.69 1006 10 16 0.00 0.00
5:53 pm 17:53 Mostly Cloudy 69 20.6 54 12.2 59 59 WSW 20 31 29.80 1009 10 16 0.00 0.00
6:53 pm 18:53 Mostly Cloudy 68 20 52 11.1 57 57 WSW 13 20 29.80 1009 10 16 N/A
7:53 pm 19:53 Cloudy 68 20 49 9.4 51 51 WNW 12 19 29.77 1008 10 16 N/A
8:26 pm 20:26 Cloudy 65 18.3 53 11.7 66 66 SSW 15 24 29.74 1007 10 16 N/A
8:53 pm 20:53 Cloudy 64 17.8 53 11.7 68 68 SW 14 22 29.79 1009 10 16 N/A
9:53 pm 21:53 Mostly Cloudy 63 17.2 54 12.2 73 73 SSW 12 19 29.80 1009 10 16 N/A
10:53 pm 22:53 Mostly Cloudy 63 17.2 52 11.1 68 68 SW 14 22 29.80 1009 10 16 N/A
11:53 pm 23:53 Cloudy with Heavy Rain 59 15 54 12.2 83 83 SW 18 30 29.80 1009 5 8 0.01 0.25

Powered by AerisWeather